Location: Mauna Kea VIS
(19.7591°N, 155.4561°W)
Time: 22:31:17
(UTC-10:00)

Hubble Space Telescope - Pass Details

Date: 20 December 2025
Orbit: 479 x 481 km, 28.5° (Epoch: 14 January)

Event Time Altitude Azimuth Distance (km) Brightness Sun altitude
Rises 19:51:03 0° 267° (W) 2,520 5.4 -28.0°
Reaches altitude 10° 19:54:18 10° 238° (WSW) 1,640 4.1 -28.7°
Maximum altitude 19:56:00 13° 211° (SSW) 1,480 3.5 -29.1°
Enters shadow 19:56:41 12° 199° (SSW) 1,506 3.4 -29.2°
